Hourly Weather Jucas

Today, 4 December, Friday

Time Temperature Precipitation Wind Pressure Humidity
00:00 +27°C° 0.7 mm 2 mps 733 mmHg 75%
01:00 +26°C° 1.4 mm 2 mps 733 mmHg 77%
02:00 +26°C° 1.4 mm 2 mps 733 mmHg 79%
03:00 +26°C° 0 mm 1 mps 733 mmHg 79%
04:00 +26°C° 1.1 mm 1 mps 733 mmHg 80%
05:00 +26°C° 1.1 mm 2 mps 734 mmHg 80%
06:00 +26°C° 1.1 mm 2 mps 734 mmHg 80%
07:00 +26°C° 0.8 mm 2 mps 735 mmHg 78%
08:00 +27°C° 0.8 mm 2 mps 735 mmHg 75%
09:00 +27°C° 0 mm 2 mps 736 mmHg 69%
10:00 +28°C° 0 mm 2 mps 735 mmHg 66%
11:00 +29°C° 0 mm 1 mps 735 mmHg 62%
12:00 +30°C° 0 mm 1 mps 734 mmHg 58%
13:00 +32°C° 0 mm 1 mps 733 mmHg 50%
14:00 +35°C° 0 mm 2 mps 733 mmHg 42%
15:00 +38°C° 0 mm 2 mps 732 mmHg 34%
16:00 +36°C° 0 mm 2 mps 732 mmHg 37%
17:00 +33°C° 0 mm 1 mps 732 mmHg 41%
18:00 +32°C° 0 mm 1 mps 731 mmHg 45%
19:00 +31°C° 0 mm 1 mps 732 mmHg 46%
20:00 +28°C° 0 mm 0 mps 732 mmHg 48%
21:00 +28°C° 0 mm 0 mps 732 mmHg 49%
22:00 +29°C° 0 mm 1 mps 732 mmHg 54%
23:00 +28°C° 0 mm 1 mps 732 mmHg 59%

Tomorrow, 5 December, Saturday

Time Temperature Precipitation Wind Pressure Humidity
00:00 +28°C° 0 mm 2 mps 732 mmHg 63%
01:00 +27°C° 0 mm 2 mps 732 mmHg 68%
02:00 +26°C° 0 mm 1 mps 732 mmHg 72%
03:00 +26°C° 0 mm 1 mps 732 mmHg 76%
04:00 +26°C° 0 mm 1 mps 732 mmHg 75%
05:00 +26°C° 0 mm 2 mps 733 mmHg 74%
06:00 +26°C° 0 mm 2 mps 733 mmHg 74%
07:00 +28°C° 0 mm 3 mps 734 mmHg 65%
08:00 +30°C° 0 mm 3 mps 734 mmHg 57%
09:00 +33°C° 0 mm 4 mps 735 mmHg 48%
10:00 +34°C° 0 mm 4 mps 734 mmHg 42%
11:00 +36°C° 0 mm 3 mps 734 mmHg 36%
12:00 +38°C° 0 mm 3 mps 733 mmHg 30%
13:00 +38°C° 0 mm 3 mps 732 mmHg 28%
14:00 +39°C° 0 mm 3 mps 732 mmHg 26%
15:00 +39°C° 0 mm 3 mps 731 mmHg 24%
16:00 +37°C° 0 mm 2 mps 731 mmHg 26%
17:00 +36°C° 0 mm 2 mps 731 mmHg 29%
18:00 +33°C° 0 mm 1 mps 730 mmHg 31%
19:00 +32°C° 0 mm 1 mps 731 mmHg 32%
20:00 +31°C° 0 mm 1 mps 732 mmHg 34%
21:00 +31°C° 0 mm 1 mps 732 mmHg 36%
22:00 +29°C° 0 mm 2 mps 732 mmHg 46%
23:00 +28°C° 0 mm 3 mps 732 mmHg 57%

Day after tomorrow, 6 December, Sunday

Time Temperature Precipitation Wind Pressure Humidity
00:00 +27°C° 0 mm 4 mps 732 mmHg 68%
01:00 +27°C° 0 mm 3 mps 732 mmHg 70%
02:00 +27°C° 0 mm 3 mps 732 mmHg 71%
03:00 +26°C° 0 mm 2 mps 732 mmHg 73%
04:00 +26°C° 0 mm 2 mps 732 mmHg 72%
05:00 +26°C° 0 mm 2 mps 733 mmHg 72%
06:00 +26°C° 0 mm 2 mps 733 mmHg 72%
07:00 +28°C° 0 mm 2 mps 734 mmHg 63%
08:00 +30°C° 0 mm 3 mps 734 mmHg 54%
09:00 +33°C° 0 mm 3 mps 734 mmHg 45%
10:00 +35°C° 0 mm 3 mps 734 mmHg 39%
11:00 +36°C° 0 mm 3 mps 733 mmHg 34%
12:00 +38°C° 0 mm 3 mps 733 mmHg 28%
13:00 +38°C° 0 mm 3 mps 732 mmHg 27%
14:00 +39°C° 0 mm 3 mps 731 mmHg 25%
15:00 +39°C° 0 mm 3 mps 731 mmHg 24%
16:00 +37°C° 0 mm 2 mps 731 mmHg 26%
17:00 +36°C° 0 mm 2 mps 731 mmHg 29%
18:00 +34°C° 0 mm 2 mps 731 mmHg 31%
19:00 +32°C° 0 mm 1 mps 731 mmHg 33%
20:00 +31°C° 0 mm 1 mps 732 mmHg 34%
21:00 +30°C° 0 mm 1 mps 732 mmHg 35%
22:00 +30°C° 0 mm 2 mps 732 mmHg 44%
23:00 +29°C° 0 mm 2 mps 732 mmHg 53%

7 December, Monday

Time Temperature Precipitation Wind Pressure Humidity
00:00 +28°C° 0 mm 3 mps 732 mmHg 62%
01:00 +27°C° 0 mm 2 mps 732 mmHg 66%
02:00 +27°C° 0 mm 2 mps 732 mmHg 70%
03:00 +26°C° 0 mm 1 mps 732 mmHg 74%
04:00 +26°C° 0 mm 1 mps 732 mmHg 74%
05:00 +26°C° 0 mm 1 mps 733 mmHg 73%
06:00 +26°C° 0 mm 1 mps 733 mmHg 73%
07:00 +28°C° 0 mm 2 mps 734 mmHg 62%
08:00 +31°C° 0 mm 2 mps 734 mmHg 51%
09:00 +34°C° 0 mm 3 mps 734 mmHg 41%
10:00 +35°C° 0 mm 3 mps 734 mmHg 36%
11:00 +37°C° 0 mm 3 mps 733 mmHg 31%
12:00 +39°C° 0 mm 3 mps 733 mmHg 25%
13:00 +39°C° 0 mm 3 mps 732 mmHg 25%
14:00 +39°C° 0 mm 3 mps 731 mmHg 24%
15:00 +39°C° 0 mm 3 mps 730 mmHg 23%
16:00 +38°C° 0 mm 3 mps 730 mmHg 25%
17:00 +36°C° 0 mm 2 mps 731 mmHg 26%
18:00 +33°C° 0 mm 1 mps 731 mmHg 28%
19:00 +32°C° 0 mm 1 mps 731 mmHg 30%
20:00 +32°C° 0 mm 2 mps 732 mmHg 32%
21:00 +31°C° 0 mm 2 mps 732 mmHg 34%
22:00 +30°C° 0 mm 2 mps 732 mmHg 45%
23:00 +29°C° 0 mm 2 mps 732 mmHg 56%

8 December, Tuesday

Time Temperature Precipitation Wind Pressure Humidity
00:00 +28°C° 0 mm 2 mps 732 mmHg 68%
01:00 +28°C° 0 mm 2 mps 732 mmHg 69%
02:00 +27°C° 0 mm 2 mps 732 mmHg 69%
03:00 +27°C° 0 mm 2 mps 732 mmHg 70%
04:00 +27°C° 0 mm 2 mps 733 mmHg 68%
05:00 +27°C° 0 mm 2 mps 733 mmHg 66%
06:00 +26°C° 0 mm 3 mps 734 mmHg 64%
07:00 +28°C° 0 mm 3 mps 734 mmHg 58%
08:00 +30°C° 0 mm 3 mps 735 mmHg 51%
09:00 +33°C° 0 mm 3 mps 735 mmHg 45%
10:00 +35°C° 0 mm 3 mps 734 mmHg 39%
11:00 +36°C° 0 mm 3 mps 734 mmHg 34%
12:00 +38°C° 0 mm 3 mps 733 mmHg 28%
13:00 +38°C° 0 mm 4 mps 733 mmHg 26%
14:00 +40°C° 0 mm 4 mps 732 mmHg 24%
15:00 +40°C° 0 mm 4 mps 731 mmHg 23%
16:00 +37°C° 0 mm 3 mps 731 mmHg 26%
17:00 +36°C° 0 mm 2 mps 731 mmHg 29%
18:00 +33°C° 0 mm 1 mps 731 mmHg 32%
19:00 +32°C° 0 mm 2 mps 732 mmHg 34%
20:00 +32°C° 0 mm 2 mps 732 mmHg 37%
21:00 +31°C° 0 mm 3 mps 733 mmHg 39%
22:00 +30°C° 0 mm 3 mps 733 mmHg 49%
23:00 +29°C° 0 mm 3 mps 733 mmHg 59%

9 December, Wednesday

Time Temperature Precipitation Wind Pressure Humidity
00:00 +28°C° 0 mm 4 mps 733 mmHg 69%
01:00 +27°C° 0 mm 3 mps 733 mmHg 72%
02:00 +26°C° 0 mm 3 mps 732 mmHg 74%
03:00 +26°C° 0 mm 2 mps 732 mmHg 77%
04:00 +26°C° 0 mm 2 mps 733 mmHg 76%
05:00 +26°C° 0 mm 2 mps 733 mmHg 75%
06:00 +26°C° 0 mm 2 mps 734 mmHg 73%
07:00 +28°C° 0 mm 2 mps 734 mmHg 62%
08:00 +30°C° 0 mm 3 mps 735 mmHg 52%
09:00 +33°C° 0 mm 3 mps 735 mmHg 41%
10:00 +35°C° 0 mm 3 mps 735 mmHg 35%
11:00 +36°C° 0 mm 3 mps 734 mmHg 29%
12:00 +38°C° 0 mm 3 mps 734 mmHg 23%
13:00 +39°C° 0 mm 3 mps 733 mmHg 22%
14:00 +39°C° 0 mm 3 mps 732 mmHg 20%
15:00 +39°C° 0 mm 3 mps 731 mmHg 19%
16:00 +38°C° 0 mm 3 mps 731 mmHg 22%
17:00 +36°C° 0 mm 2 mps 732 mmHg 25%
18:00 +34°C° 0 mm 2 mps 732 mmHg 27%
19:00 +32°C° 0 mm 2 mps 732 mmHg 31%
20:00 +31°C° 0 mm 3 mps 733 mmHg 34%
21:00 +30°C° 0 mm 3 mps 733 mmHg 38%
22:00 +29°C° 0 mm 3 mps 733 mmHg 47%
23:00 +28°C° 0 mm 2 mps 733 mmHg 57%
Show more